CW8466 Weather Reports


Display with metric or nautical units.
time (UTC)temp
F
wind
direction
speed
MPH
gust
MPH
rain 1hr
in
rain 24hr
in
rain mn
in
humidity
%
barometer
mb
20260506101907 76 148 0.0 0.0 0.00 0.00 0.00 100 1007.7
20260506100338 76 147 0.0 0.0 0.00 0.00 0.00 100 1007.9
20260506094830 76 147 0.0 0.0 0.00 0.00 0.00 100 1007.7
20260506093343 76 147 0.0 0.0 0.00 0.00 0.00 100 1007.8
20260506091840 76 147 0.0 0.0 0.00 0.00 0.00 100 1007.7
20260506090338 76 147 0.0 0.0 0.00 0.00 0.00 100 1007.6
20260506084856 76 146 0.0 0.0 0.00 0.00 0.00 100 1007.7
20260506083330 76 147 0.0 0.0 0.00 0.00 0.00 100 1007.6
20260506081830 76 148 0.0 0.0 0.00 0.00 0.00 100 1007.7
20260506080403 76 154 0.0 0.0 0.00 0.00 0.00 100 1007.6
20260506073340 76 141 0.0 0.0 0.00 0.00 0.00 99 1007.9
20260506071852 77 128 0.0 0.0 0.00 0.00 0.00 98 1008.0
20260506070341 77 151 0.0 0.0 0.00 0.00 0.00 98 1008.2
20260506061850 77 185 0.0 0.0 0.00 0.00 0.00 97 1008.7
20260506060408 77 164 0.0 0.0 0.00 0.00 0.00 97 1008.8
20260506050333 77 184 0.0 0.0 0.00 0.00 0.00 97 1008.7
20260506044904 77 164 0.0 0.0 0.00 0.00 0.00 97 1008.7
20260506043404 77 168 0.0 0.0 0.00 0.00 0.00 97 1008.5
20260506041846 77 174 0.0 0.0 0.00 0.00 0.00 97 1008.1
20260506040343 77 160 0.0 0.0 0.00 0.00 0.00 97 1008.1
20260506034841 77 172 0.0 0.0 0.00 0.00 0.00 97 1008.1
20260506033338 78 152 0.0 0.0 0.00 0.00 0.00 96 1007.9
20260506031829 78 162 0.0 1.0 0.00 0.00 0.00 96 1007.9
20260506030338 78 167 0.0 0.0 0.00 0.00 0.00 96 1007.8
20260506024842 78 171 0.0 0.0 0.00 0.00 0.00 95 1007.8
20260506023331 78 148 0.0 0.0 0.00 0.00 0.00 96 1007.6
20260506021840 78 155 0.0 0.0 0.00 0.00 0.00 96 1007.4
20260506020346 78 173 0.0 0.0 0.00 0.00 0.00 95 1007.1
20260506014832 78 150 0.0 0.0 0.00 0.00 0.00 95 1006.8
20260506013357 78 169 0.0 0.0 0.00 0.00 0.00 94 1006.7
20260506011908 79 170 0.0 1.0 0.00 0.00 0.00 93 1006.6
20260506010334 79 167 0.0 16.0 0.00 0.00 0.00 92 1006.3
20260506004843 80 147 7.0 13.0 0.00 0.00 0.00 91 1006.2
20260506003344 80 171 5.0 16.0 0.00 0.00 0.00 90 1006.0
20260506001836 80 155 10.0 15.0 0.00 0.00 0.00 89 1005.9
20260506000330 81 181 10.0 13.0 0.00 0.00 0.00 88 1005.9
20260505234840 82 180 10.0 14.0 0.00 0.00 0.00 87 1005.8
20260505233341 82 171 11.0 16.0 0.00 0.00 0.00 86 1005.8
20260505231832 83 191 9.0 15.0 0.00 0.00 0.00 86 1005.8
20260505230343 82 165 9.0 17.0 0.00 0.00 0.00 86 1005.9
20260505224836 83 146 8.0 17.0 0.00 0.00 0.00 85 1005.9
20260505223359 83 165 9.0 16.0 0.00 0.00 0.00 85 1006.1
20260505221845 83 192 4.0 11.0 0.00 0.00 0.00 84 1006.2
20260505220337 84 167 9.0 14.0 0.00 0.00 0.00 83 1006.3
20260505214828 84 155 10.0 14.0 0.00 0.00 0.00 83 1006.2
20260505213340 84 166 10.0 12.0 0.00 0.00 0.00 82 1006.4
20260505211827 85 182 10.0 14.0 0.00 0.00 0.00 82 1006.7
20260505210339 84 155 9.0 15.0 0.00 0.00 0.00 84 1006.9
20260505204902 84 170 11.0 16.0 0.00 0.00 0.00 83 1006.9
20260505203356 85 148 8.0 15.0 0.00 0.00 0.00 81 1007.1
20260505201844 85 169 0.0 0.0 0.00 0.00 0.00 82 1007.3
20260505200333 85 214 0.0 0.0 0.00 0.00 0.00 80 1007.3
20260505194843 85 168 0.0 0.0 0.00 0.00 0.00 83 1007.5
20260505193336 84 163 0.0 0.0 0.00 0.00 0.00 83 1007.7
20260505191842 84 163 0.0 0.0 0.00 0.00 0.00 84 1008.0
20260505190334 84 162 0.0 0.0 0.00 0.00 0.00 84 1008.0
20260505184845 83 187 0.0 0.0 0.00 0.00 0.00 86 1008.2
20260505183357 83 200 0.0 0.0 0.00 0.00 0.00 84 1008.4
20260505181847 82 181 0.0 0.0 0.00 0.00 0.00 85 1008.5
20260505180402 82 189 0.0 0.0 0.00 0.00 0.00 85 1008.6
20260505174828 82 165 0.0 0.0 0.00 0.00 0.00 86 1008.7
20260505173336 82 211 0.0 0.0 0.00 0.00 0.00 85 1008.7
20260505171843 81 199 0.0 1.0 0.00 0.00 0.00 86 1008.7
20260505170328 81 178 0.0 1.0 0.00 0.00 0.00 88 1008.9
20260505164856 80 219 0.0 0.0 0.00 0.00 0.00 90 1009.2
20260505163346 79 216 0.0 0.0 0.00 0.00 0.00 92 1009.2
20260505161837 78 222 0.0 0.0 0.00 0.00 0.00 95 1009.2
20260505160329 77 214 0.0 0.0 0.00 0.00 0.00 96 1009.3
20260505151826 75 188 0.0 0.0 0.00 0.00 0.00 100 1009.1
20260505150333 75 200 0.0 0.0 0.00 0.00 0.00 100 1009.2
20260505140345 73 171 0.0 0.0 0.00 0.00 0.00 100 1008.9
20260505124829 72 171 0.0 0.0 0.00 0.00 0.00 100 1008.8
20260505123344 72 169 0.0 0.0 0.00 0.00 0.00 100 1008.5
20260505121834 71 169 0.0 0.0 0.00 0.00 0.00 100 1008.4
20260505120332 71 168 0.0 0.0 0.00 0.00 0.00 100 1008.1
20260505114838 71 165 0.0 0.0 0.00 0.00 0.00 100 1008.1
20260505113358 71 165 0.0 0.0 0.00 0.00 0.00 100 1008.4
20260505111847 71 165 0.0 0.0 0.00 0.00 0.00 100 1008.3
20260505110338 70 163 0.0 0.0 0.00 0.00 0.00 100 1008.2